Location: San Bernardino
(34.1083°N, 117.2898°W)
Time: 06:22:48
(UTC+00:00)

ATLAS 2AS CENTAUR R/B - Visible Passes

Search period start: 13 July 2024 00:00
Search period end: 23 July 2024 00:00
Orbit: 1019 x 1192 km, 63.7° (Epoch: 12 July)

Date Brightness Start Highest point End Pass type
(mag) Time Alt. Az. Time Alt. Az. Time Alt. Az.
16 Jul 5.3 11:43:12 10° SE 11:45:48 12° ESE 11:48:22 10° E visible
18 Jul 4.5 11:59:53 10° SSE 12:06:10 30° ESE 12:12:18 10° NE visible
19 Jul 5.1 11:16:57 10° SE 11:21:32 18° ESE 11:26:02 10° ENE visible
20 Jul 3.3 12:19:26 10° SSW 12:26:48 67° ESE 12:33:57 10° NE visible
21 Jul 3.9 11:35:09 10° S 11:41:59 41° ESE 11:48:39 10° NE visible
22 Jul 4.6 10:51:36 10° SSE 10:57:18 24° ESE 11:02:53 10° ENE visible
